Weather History for Ubon Ratchathani, Thailand

Change the Weather History Date:

Saturday, November 23, 2013

  Actual Average Record
Temperature  
Mean Temperature 82 °F -  
Max Temperature 93 °F 86 °F - ()
Min Temperature 71 °F 64 °F - ()
Cooling Degree Days 17    
Growing Degree Days 32 (Base 50)    
Moisture  
Dew Point 71 °F    
Average Humidity 72    
Maximum Humidity 88    
Minimum Humidity 45    
Precipitation  
Precipitation 0.00 in 0.01 in - ()
Sea Level Pressure  
Sea Level Pressure 29.83 in    
Wind  
Wind Speed 3 mph ()    
Max Wind Speed 6 mph    
Max Gust Speed -    
Visibility 6.0 miles    
Events      
T = Trace of Precipitation, MM = Missing Value Source: Averaged Metar Reports

Daily Weather History Graph

Daily Weather History Graph

Search for Another Location

Airport:

Trip Planner

Search our weather history database for the weather conditions in past years. The results will help you decide how hot, cold, wet, or windy it might be!

Date:

Astronomy

Nov. 23, 2013 Rise Set
Actual Time 6:06 AM ICT 5:27 PM ICT
Civil Twilight 5:43 AM ICT 5:50 PM ICT
Nautical Twilight 5:17 AM ICT 6:16 PM ICT
Astronomical Twilight 4:51 AM ICT 6:42 PM ICT
Moon 10:09 PM ICT (11/23) 10:18 AM ICT (11/23)
Length of Visible Light 12h 06m
Length of Day
11h 21m
Waning Gibbous, 74% of the Moon is Illuminated
Nov 23
Waning Gibbous
Nov 26
Last Quarter
Dec 3
New
Dec 9
First Quarter
Dec 17
Full

Hourly Weather History & Observations

Time (ICT) Temp. Heat Index Dew Point Humidity Pressure Visibility Wind Dir Wind Speed Gust Speed Precip Events Conditions
12:00 AM 77.0 °F - 69.8 °F 78% 29.86 in 5.6 mi NE 2.3 mph - N/A   Unknown
1:00 AM 74 °F - 69 °F 81% 29.86 in 6 mi North 3.5 mph - -   Mist
1:00 AM 75.2 °F - 69.8 °F 83% 29.86 in 5.6 mi North 3.5 mph - N/A   Unknown
3:00 AM 73.4 °F - 69.8 °F 88% 29.86 in 5.6 mi North 2.3 mph - N/A   Unknown
4:00 AM 73 °F - 69 °F 85% 29.85 in 6 mi NNE 2.3 mph - -   Mist
4:00 AM 73.4 °F - 69.8 °F 88% 29.83 in 5.6 mi NNE 2.3 mph - N/A   Unknown
5:00 AM 71.6 °F - 68.0 °F 88% 29.83 in 5.6 mi NNE 2.3 mph - N/A   Unknown
6:00 AM 71.6 °F - 68.0 °F 88% 29.86 in 5.6 mi NNE 2.3 mph - N/A   Unknown
6:30 AM 71.6 °F - 68.0 °F 88% 29.86 in 5.6 mi NNE 2.3 mph - N/A   Unknown
7:00 AM 73 °F - 69 °F 84% 29.88 in 6 mi NE 3.5 mph - -   Scattered Clouds
7:00 AM 73.4 °F - 69.8 °F 88% 29.86 in - NE 3.5 mph - N/A   Clear
8:00 AM 77.0 °F - 69.8 °F 78% 29.89 in 6.2 mi North 3.5 mph - N/A   Scattered Clouds
9:00 AM 80.6 °F 84.6 °F 71.6 °F 74% 29.92 in 6.2 mi NNE 3.5 mph - N/A   Scattered Clouds
10:00 AM 85 °F - 72 °F 58% 29.91 in 6 mi NNE 3.5 mph - -   Scattered Clouds
10:00 AM 84.2 °F 90.9 °F 73.4 °F 70% 29.89 in 6.2 mi NNE 3.5 mph - N/A   Scattered Clouds
11:00 AM 87.8 °F 93.8 °F 71.6 °F 58% 29.86 in 6.2 mi NE 4.6 mph - N/A   Scattered Clouds
12:00 PM 89.6 °F 96.2 °F 71.6 °F 55% 29.86 in 6.2 mi NNE 3.5 mph - N/A   Scattered Clouds
1:00 PM 90 °F - 71 °F 45% 29.81 in 6 mi NE 5.8 mph - -   Partly Cloudy
1:00 PM 89.6 °F 96.2 °F 71.6 °F 55% 29.80 in 6.2 mi NE 5.8 mph - N/A   Scattered Clouds
2:00 PM 91.4 °F 96.8 °F 69.8 °F 49% 29.77 in 6.2 mi NNE 4.6 mph - N/A   Scattered Clouds
3:00 PM 86.0 °F 91.8 °F 71.6 °F 62% 29.77 in 6.2 mi South 3.5 mph - N/A   Mostly Cloudy
4:00 PM 90 °F - 72 °F 46% 29.77 in 6 mi NE 3.5 mph - -   Partly Cloudy
4:00 PM 89.6 °F 96.2 °F 71.6 °F 55% 29.74 in 6.2 mi NE 3.5 mph - N/A   Mostly Cloudy
5:00 PM 84.2 °F 89.6 °F 71.6 °F 66% 29.77 in 6.2 mi South 4.6 mph - N/A   Mostly Cloudy
5:30 PM 82.4 °F 87.2 °F 71.6 °F 70% 29.77 in 6.2 mi SSE 3.5 mph - N/A   Mostly Cloudy
6:00 PM 82.4 °F 87.2 °F 71.6 °F 70% 29.80 in 6.2 mi Calm Calm - N/A   Mostly Cloudy
7:00 PM 81 °F - 73 °F 70% 29.83 in 6 mi NE 3.5 mph - -   Partly Cloudy
7:00 PM 80.6 °F 85.4 °F 73.4 °F 79% 29.83 in 6.2 mi NE 3.5 mph - N/A   Scattered Clouds
8:00 PM 80.6 °F 85.4 °F 73.4 °F 79% 29.83 in 6.2 mi NE 2.3 mph - N/A   Scattered Clouds
9:00 PM 80.6 °F 85.4 °F 73.4 °F 79% 29.83 in 6.2 mi Calm Calm - N/A   Mostly Cloudy
10:00 PM 80.6 °F 85.4 °F 73.4 °F 79% 29.83 in 6.2 mi SE 3.5 mph - N/A   Mostly Cloudy
11:00 PM 80.6 °F 85.4 °F 73.4 °F 79% 29.83 in 6.2 mi ENE 3.5 mph - N/A   Mostly Cloudy